GW3347 Weather Reports


time (UTC)temp
F
wind
direction
speed
knots
gust
knots
rain 1hr
in
rain 24hr
in
rain mn
in
humidity
%
barometer
mb
20260504081531 51 0 0.0 1.7 0.00 0.00 0.00 66 1014.7
20260504044529 43 0 0.0 0.0 0.00 0.00 0.00 79 1015.1
20260504043028 43 0 0.0 0.0 0.00 0.00 0.00 77 1015.2
20260504041534 44 0 0.0 0.0 0.00 0.00 0.00 78 1015.3
20260504040033 44 0 0.0 0.0 0.00 0.00 0.00 77 1015.2
20260504034542 44 0 0.0 0.0 0.00 0.00 0.00 77 1015.1
20260504033033 44 0 0.0 0.0 0.00 0.00 0.00 78 1015.1
20260504031530 43 0 0.0 0.0 0.00 0.00 0.00 76 1015.0
20260504030038 43 0 0.0 0.9 0.00 0.00 0.00 74 1014.8
20260504024530 43 0 0.0 0.0 0.00 0.00 0.00 75 1014.6
20260504023030 43 0 0.0 0.0 0.00 0.00 0.00 73 1014.6
20260504021532 44 0 0.0 0.0 0.00 0.00 0.00 73 1014.7
20260504020038 45 0 0.0 0.0 0.00 0.00 0.00 71 1014.7
20260504014532 45 0 0.0 0.0 0.00 0.00 0.00 67 1014.5
20260504013029 46 0 0.0 0.0 0.00 0.00 0.00 66 1014.5
20260504011531 47 0 0.0 0.0 0.00 0.00 0.00 62 1014.4
20260504010030 49 0 0.0 0.0 0.00 0.00 0.00 62 1014.3
20260504004531 51 0 0.0 0.0 0.00 0.00 0.00 55 1014.3
20260504003030 53 0 0.0 0.0 0.00 0.00 0.00 50 1014.0
20260504001533 55 0 0.0 0.0 0.00 0.00 0.00 46 1014.1
20260504000033 57 0 0.0 0.0 0.00 0.00 0.00 41 1014.0
20260503234534 59 0 0.0 0.0 0.00 0.00 0.00 36 1013.9
20260503233034 60 0 0.0 0.9 0.00 0.00 0.00 33 1013.7
20260503231544 61 0 0.0 0.0 0.00 0.00 0.00 31 1013.6
20260503230030 61 0 0.0 0.9 0.00 0.00 0.00 31 1013.7
20260503224531 62 0 0.0 0.9 0.00 0.00 0.00 31 1013.7
20260503223030 62 0 0.9 10.4 0.00 0.00 0.00 31 1013.7
20260503221535 61 0 2.6 12.2 0.00 0.00 0.00 30 1013.7
20260503220037 62 298 2.6 12.2 0.00 0.00 0.00 31 1013.8
20260503214531 61 0 0.9 9.6 0.00 0.00 0.00 31 1013.8
20260503213048 61 0 1.7 13.9 0.00 0.00 0.00 33 1013.7
20260503211533 61 0 0.0 10.4 0.00 0.00 0.00 33 1013.7
20260503210035 61 323 6.1 14.8 0.00 0.00 0.00 32 1013.7
20260503204550 61 302 1.7 13.0 0.00 0.00 0.00 34 1013.7
20260503203035 61 0 2.6 12.2 0.00 0.00 0.00 36 1014.0
20260503201530 60 0 0.9 11.3 0.00 0.00 0.00 36 1014.1
20260503200030 60 298 3.5 14.8 0.00 0.00 0.00 34 1014.3
20260503194530 60 0 2.6 15.6 0.00 0.00 0.00 36 1014.5
20260503193030 59 0 6.1 16.5 0.00 0.00 0.00 36 1014.4
20260503191537 59 0 0.0 9.6 0.00 0.00 0.00 37 1014.6
20260503190033 59 326 5.2 17.4 0.00 0.00 0.00 38 1014.9
20260503184530 58 0 7.0 15.6 0.00 0.00 0.00 37 1015.0
20260503183040 58 329 3.5 13.9 0.00 0.00 0.00 39 1015.2
20260503181532 58 320 7.0 13.9 0.00 0.00 0.00 37 1015.4
20260503180033 57 0 0.0 12.2 0.00 0.00 0.00 39 1015.2
20260503174541 57 0 2.6 17.4 0.00 0.00 0.00 39 1015.3
20260503173030 56 0 1.7 17.4 0.00 0.00 0.00 39 1015.4
20260503171533 56 0 1.7 14.8 0.00 0.00 0.00 39 1015.4